Palmdale, CA

12:36 AM PST on November 23, 2017 (GMT -0800)
Palmdale Af Plant 42

Weather History for KPMD - February, 2013

Change the Weather History Date:

Monday, February 25, 2013

  Actual Average Record
Temperature  
Mean Temperature 46 °F 50 °F  
Max Temperature 66 °F 63 °F 80 °F (1986)
Min Temperature 26 °F 38 °F 22 °F (1974)
Degree Days  
Heating Degree Days 19 15  
Month to date heating degree days 454 418  
Since 1 July heating degree days 2150 2202  
Cooling Degree Days 0 0  
Month to date cooling degree days 0 0  
Year to date cooling degree days 0 0  
Moisture  
Dew Point 11 °F    
Average Humidity 27    
Maximum Humidity 42    
Minimum Humidity 11    
Precipitation  
Precipitation 0.00 in 0.07 in 0.90 in (1969)
Month to date precipitation 0.10 1.59  
Year to date precipitation 0.46 3.16  
Since 1 July precipitation 0.75  
Snow  
Snow 0.00 in - 0.00 in (1974)
Month to date snowfall 0.0  
Since 1 July snowfall 0.0  
Snow Depth 0.00 in    
Sea Level Pressure  
Sea Level Pressure 30.16 in    
Wind  
Wind Speed 8 mph (West)    
Max Wind Speed 29 mph    
Max Gust Speed 33 mph    
Visibility 10 miles    
Events      
T = Trace of Precipitation, MM = Missing Value Source: NWS Daily Summary

Daily Weather History Graph

Daily Weather History Graph

Search for Another Location

Airport or City:

Trip Planner

Search our weather history database for the weather conditions in past years. The results will help you decide how hot, cold, wet, or windy it might be!

Date:

Astronomy

Feb. 25, 2013 Rise Set
Actual Time 6:25 AM PST 5:45 PM PST
Civil Twilight 6:00 AM PST 6:10 PM PST
Nautical Twilight 5:31 AM PST 6:39 PM PST
Astronomical Twilight 5:02 AM PST 7:08 PM PST
Moon 6:00 PM PST (2/25) 6:00 AM PST (2/25)
Length of Visible Light 12h 09m
Length of Day
11h 19m
Full, 100% of the Moon is Illuminated
Feb 25
Full
Feb 25
Full
Mar 4
Last Quarter
Mar 11
New
Mar 19
First Quarter

Hourly Weather History & Observations

Time (PST) Temp. Windchill Dew Point Humidity Pressure Visibility Wind Dir Wind Speed Gust Speed Precip Events Conditions
12:53 AM 35.1 °F 31.0 °F 3.0 °F 26% 30.25 in 10.0 mi West 4.6 mph - N/A   Clear
1:53 AM 30.0 °F 26.5 °F 3.9 °F 33% 30.26 in 10.0 mi South 3.5 mph - N/A   Clear
2:53 AM 30.0 °F 26.5 °F 5.0 °F 35% 30.25 in 10.0 mi Variable 3.5 mph - N/A   Clear
3:53 AM 30.0 °F - 7.0 °F 38% 30.23 in 10.0 mi Calm Calm - N/A   Clear
4:53 AM 28.9 °F 22.8 °F 9.0 °F 43% 30.25 in 10.0 mi SSW 5.8 mph - N/A   Clear
5:53 AM 28.0 °F 20.8 °F 9.0 °F 45% 30.26 in 10.0 mi South 6.9 mph - N/A   Clear
6:53 AM 28.0 °F 24.2 °F 9.0 °F 45% 30.26 in 10.0 mi SSW 3.5 mph - N/A   Clear
7:53 AM 36.0 °F - 10.0 °F 34% 30.27 in 10.0 mi Calm Calm - N/A   Clear
8:53 AM 41.0 °F 39.0 °F 10.0 °F 28% 30.26 in 10.0 mi North 3.5 mph - N/A   Clear
9:53 AM 48.2 °F - 6.8 °F 19% 30.22 in 10.0 mi Variable 3.5 mph - N/A   Clear
10:53 AM 52.0 °F - 3.0 °F 14% 30.22 in 10.0 mi Calm Calm - N/A   Clear
11:53 AM 55.9 °F - 5.0 °F 13% 30.18 in 10.0 mi Variable 4.6 mph - N/A   Clear
12:53 PM 57.9 °F - 5.0 °F 12% 30.14 in 10.0 mi NW 4.6 mph - N/A   Clear
1:53 PM 62.1 °F - 6.1 °F 11% 30.11 in 10.0 mi Calm Calm - N/A   Clear
2:53 PM 64.9 °F - 8.1 °F 11% 30.09 in 10.0 mi Variable 4.6 mph - N/A   Clear
3:53 PM 66.0 °F - 15.1 °F 14% 30.06 in 10.0 mi West 17.3 mph - N/A   Clear
4:53 PM 63.0 °F - 15.1 °F 16% 30.05 in 10.0 mi West 16.1 mph - N/A   Clear
5:53 PM 57.9 °F - 16.0 °F 19% 30.06 in 10.0 mi West 20.7 mph 25.3 mph N/A   Clear
6:53 PM 54.0 °F - 16.0 °F 22% 30.09 in 10.0 mi West 13.8 mph - N/A   Clear
7:53 PM 52.0 °F - 19.9 °F 28% 30.09 in 10.0 mi WNW 18.4 mph - N/A   Clear
8:53 PM 52.0 °F - 18.0 °F 26% 30.08 in 10.0 mi West 18.4 mph - N/A   Clear
9:53 PM 51.1 °F - 19.9 °F 29% 30.07 in 10.0 mi West 28.8 mph - N/A   Clear
10:53 PM 50.0 °F - 19.0 °F 29% 30.08 in 10.0 mi West 12.7 mph - N/A   Clear
11:53 PM 48.9 °F - 17.1 °F 28% 30.06 in 10.0 mi West 5.8 mph - N/A   Clear